Showing default

TELSTAR 19V, 43562

Orbit data source: Space-Track

TELSTAR 19V, 43562 is a payload satellite owned by Telesat/Skynet (CA) in GEO that was launched on Sun, 22 Jul 2018 UTC via an FALCON 9 launch vehicle from the Air Force Eastern Test Range (AFETR). Payloads include a variety of satellites, spacecraft, and rockets equipped with specific instruments for various scientific and technological missions. These include communications satellites like Starlink; space stations such as the ISS; scientific satellites like the Hubble; Earth observation satellites from companies like Planet Labs, Umbra, and HawkEye 360; GPS; miniature CubeSats for education and research; and military/defense satellites.

Loading next visibility...
TELSTAR 19V details
Identifier
43562, 2018-059A
Orbit
GEO
Last TLE update11 hours ago
Origin
Flag of CATelesat/Skynet (CA)
ManufacturerMaxar SSL
MissionOperational Commercial Communications
Bus & MotorLS-1300, R-4D
Mass7,075 kg wet, ~2,000 kg dry
Launch date (UTC)
2018-07-22 (6 years ago)
Launch vehicle
FALCON 9
Launch site
Air Force Eastern Test Range (AFETR)
Object type
Payload
Rocket body
Debris
Shape & HBRBox + 2 Pan, 26.1 m
Radar Cross Section120.644 m², Large (>1 m²)

Expand to show TLE details & history

TLE from 11 hours ago
0 TELSTAR 19V
1 43562U 18059A   24361.53104999 -.00000251  00000-0  00000-0 0  9998
2 43562   0.0120 111.0556 0001143  87.9285  24.7019  1.00271110 23755
Epoch: 2024-12-26T12:44Z
Definitive object data (Epoch: 2024-12-26T12:44:42.719Z)
Latitude-0.00151°
Longitude-63.0035°
Altitude35,781.905 km
Speed3.075 km/s
True Right ascension14h 54m 44s
True Declination0° 00' 05"
Sunlit
Object was in daylight at TLE epoch
Visualization TLE readout
Latitude0.00099°
Longitude95.23242°
Altitude35,791.117 km
Speed3.074 km/s
Apparent Right ascension01h 47m 09s
Apparent Declination-6° 00' 28"
Sunlit
Object is in daylight
Visualization observer readout
Local Sidereal Time22:39:14
Azimuth125.344° SE
Elevation26.953°
Doppler factor1
Orbital elements
Apogee altitude35,792.674 km
Perigee altitude35,783.035 km
Semi-major axis42,165.992 km
Eccentricity0.0001143
Inclination0.012°
RAAN111.0556°
Arg. of periapsis87.9285°
True anomaly24.70737°
Mean anomaly24.7019°
Eccentric anomaly24.70464°
Mean motion0.25067 °/min
BSTARUnknown
Orbital period1436.16 mins
Loading historical data...
43562 neighbors
Authenticating...
Loading maneuver chart data...
Loading historical data...
Loading historical data...
Loading historical data...
Loading historical data...
Loading historical data...
Loading historical data...
Loading historical data...
Other satellites on launch #59 in the year 2018 (2018-07-22 UTC)

TELSTAR 19V Visibility forecast

Observer location: undefined°, undefined

Span
Click to sort rows by Start time (UTC) header in descending order
Start Az.
Max El. time (UTC)
Max El. Az.
Max El.
End time (UTC)
End Az.
1440 mins2024-12-26 23:15:57.397Z125.358° SE2024-12-27 05:56:57.397Z125.369° SE24.383°2024-12-27 23:15:57.397Z125.362° SE
|